Tracking 19651 objects as of 22-Apr-2019
HD Live streaming from Space Station
objects crossing your sky now

ALE-1

Track ALE-1 now!
10-day predictions


NORAD ID: 43938
Int'l Code: 2019-003G
Perigee: 486.7 km
Apogee: 519.3 km
Inclination: 97.3 °
Period: 94.5 minutes
Semi major axis: 6873 km
RCS: Unknown
Launch date: January 18, 2019
Source: Japan (JPN)
Launch site: KAGOSHIMA SPACE CENTER UNIVERSITY OF TOKYO (KSCUT)
aabbcc
Your satellite tracking list
Your tracking list is empty




NASA's NSSDC Master Catalog

Two Line Element Set (TLE):
1 43938U 19003G   19112.14550330  .00015756  00000-0  66094-3 0  9997
2 43938  97.2884 171.8138 0023651 278.1486  81.7124 15.23312235 14329
Source of the keplerian elements: AFSPC